| time (UTC) | temp C | wind direction | speed KPH | gust KPH | rain 1hr cm | rain 24hr cm | rain mn cm | humidity % | barometer mb |
| 20260504050544 | 21 | 105 | 12.9 | 29.0 | 0.00 | 0.00 | 0.00 | 57 | 1009.2 |
| 20260504045521 | 21 | 114 | 12.9 | 43.5 | 0.00 | 0.00 | 0.00 | 56 | 1009.1 |
| 20260504044524 | 21 | 96 | 14.5 | 30.6 | 0.00 | 0.00 | 0.00 | 55 | 1009.1 |
| 20260504043543 | 21 | 121 | 9.7 | 27.4 | 0.00 | 0.00 | 0.00 | 54 | 1009.0 |
| 20260504042521 | 21 | 92 | 14.5 | 25.7 | 0.00 | 0.00 | 0.00 | 52 | 1008.8 |
| 20260504041554 | 21 | 113 | 11.3 | 27.4 | 0.00 | 0.00 | 0.00 | 52 | 1008.8 |
| 20260504040558 | 21 | 112 | 16.1 | 29.0 | 0.00 | 0.00 | 0.00 | 52 | 1008.7 |
| 20260504035551 | 21 | 113 | 12.9 | 33.8 | 0.00 | 0.00 | 0.00 | 52 | 1008.7 |
| 20260504034533 | 21 | 96 | 16.1 | 37.0 | 0.00 | 0.00 | 0.00 | 52 | 1008.7 |
| 20260504033527 | 21 | 110 | 9.7 | 27.4 | 0.00 | 0.00 | 0.00 | 52 | 1008.8 |
| 20260504032550 | 21 | 113 | 12.9 | 30.6 | 0.00 | 0.00 | 0.00 | 52 | 1008.9 |
| 20260504031523 | 21 | 138 | 11.3 | 43.5 | 0.00 | 0.00 | 0.00 | 52 | 1008.9 |
| 20260504030526 | 21 | 104 | 17.7 | 30.6 | 0.00 | 0.00 | 0.00 | 52 | 1009.1 |
| 20260504025519 | 21 | 115 | 16.1 | 40.2 | 0.00 | 0.00 | 0.00 | 52 | 1009.2 |
| 20260504024538 | 21 | 109 | 12.9 | 25.7 | 0.00 | 0.00 | 0.00 | 52 | 1009.4 |
| 20260504023516 | 21 | 103 | 14.5 | 30.6 | 0.00 | 0.00 | 0.00 | 52 | 1009.8 |
| 20260504022534 | 21 | 98 | 12.9 | 25.7 | 0.00 | 0.00 | 0.00 | 52 | 1009.8 |
| 20260504021557 | 21 | 111 | 9.7 | 25.7 | 0.00 | 0.00 | 0.00 | 52 | 1010.2 |
| 20260504020530 | 21 | 103 | 9.7 | 29.0 | 0.00 | 0.00 | 0.00 | 52 | 1010.2 |
| 20260504015529 | 21 | 109 | 12.9 | 30.6 | 0.00 | 0.00 | 0.00 | 53 | 1010.3 |
| 20260504014532 | 21 | 104 | 12.9 | 38.6 | 0.00 | 0.00 | 0.00 | 53 | 1010.5 |
| 20260504013525 | 21 | 105 | 11.3 | 25.7 | 0.00 | 0.00 | 0.00 | 53 | 1010.5 |
| 20260504012523 | 21 | 118 | 9.7 | 24.1 | 0.00 | 0.00 | 0.00 | 53 | 1010.6 |
| 20260504011521 | 21 | 102 | 9.7 | 22.5 | 0.00 | 0.00 | 0.00 | 53 | 1010.4 |
| 20260504010519 | 20 | 116 | 9.7 | 25.7 | 0.00 | 0.00 | 0.00 | 53 | 1010.5 |
| 20260504005538 | 20 | 111 | 11.3 | 38.6 | 0.00 | 0.00 | 0.00 | 53 | 1010.4 |
| 20260504004515 | 20 | 96 | 12.9 | 30.6 | 0.00 | 0.00 | 0.00 | 54 | 1010.4 |
| 20260504003554 | 20 | 108 | 12.9 | 30.6 | 0.00 | 0.00 | 0.00 | 54 | 1010.3 |
| 20260504002532 | 20 | 119 | 12.9 | 33.8 | 0.00 | 0.00 | 0.00 | 54 | 1010.4 |
| 20260504001611 | 20 | 96 | 14.5 | 37.0 | 0.00 | 0.00 | 0.00 | 54 | 1010.4 |
| 20260504000528 | 20 | 109 | 12.9 | 30.6 | 0.00 | 0.00 | 0.00 | 54 | 1010.5 |
| 20260503235551 | 20 | 125 | 11.3 | 25.7 | 0.00 | 0.00 | 0.00 | 54 | 1010.6 |
| 20260503234525 | 20 | 116 | 14.5 | 27.4 | 0.00 | 0.00 | 0.00 | 54 | 1010.5 |
| 20260503233523 | 20 | 125 | 9.7 | 29.0 | 0.00 | 0.00 | 0.00 | 54 | 1010.6 |
| 20260503232521 | 20 | 111 | 9.7 | 35.4 | 0.00 | 0.00 | 0.00 | 54 | 1010.6 |
| 20260503231519 | 20 | 123 | 12.9 | 25.7 | 0.00 | 0.00 | 0.00 | 54 | 1010.6 |
| 20260503230518 | 20 | 117 | 8.0 | 20.9 | 0.00 | 0.00 | 0.00 | 54 | 1010.7 |
| 20260503225535 | 20 | 113 | 11.3 | 30.6 | 0.00 | 0.00 | 0.00 | 54 | 1010.7 |
| 20260503224619 | 20 | 110 | 14.5 | 30.6 | 0.00 | 0.00 | 0.00 | 54 | 1010.8 |
| 20260503223532 | 19 | 123 | 9.7 | 22.5 | 0.00 | 0.00 | 0.00 | 54 | 1010.7 |
| 20260503222530 | 19 | 137 | 9.7 | 24.1 | 0.00 | 0.00 | 0.00 | 55 | 1010.6 |
| 20260503221533 | 19 | 128 | 9.7 | 22.5 | 0.00 | 0.00 | 0.00 | 54 | 1010.5 |
| 20260503220527 | 19 | 127 | 9.7 | 29.0 | 0.00 | 0.00 | 0.00 | 54 | 1010.5 |
| 20260503215525 | 19 | 111 | 8.0 | 16.1 | 0.00 | 0.00 | 0.00 | 54 | 1010.5 |
| 20260503214603 | 19 | 154 | 6.4 | 14.5 | 0.00 | 0.00 | 0.00 | 55 | 1010.4 |
| 20260503213543 | 19 | 115 | 6.4 | 14.5 | 0.00 | 0.00 | 0.00 | 55 | 1010.4 |
| 20260503212609 | 18 | 117 | 8.0 | 20.9 | 0.00 | 0.00 | 0.00 | 55 | 1010.4 |
| 20260503211519 | 18 | 112 | 6.4 | 24.1 | 0.00 | 0.00 | 0.00 | 55 | 1010.5 |
| 20260503210535 | 18 | 117 | 6.4 | 20.9 | 0.00 | 0.00 | 0.00 | 55 | 1010.4 |
| 20260503205534 | 18 | 125 | 6.4 | 20.9 | 0.00 | 0.00 | 0.00 | 56 | 1010.3 |
| 20260503204532 | 18 | 119 | 6.4 | 20.9 | 0.00 | 0.00 | 0.00 | 56 | 1010.1 |
| 20260503203530 | 18 | 146 | 8.0 | 24.1 | 0.00 | 0.00 | 0.00 | 56 | 1010.1 |
| 20260503202528 | 18 | 117 | 9.7 | 30.6 | 0.00 | 0.00 | 0.00 | 56 | 1010.2 |
| 20260503201526 | 18 | 122 | 6.4 | 16.1 | 0.00 | 0.00 | 0.00 | 56 | 1010.1 |
| 20260503200526 | 18 | 136 | 9.7 | 20.9 | 0.00 | 0.00 | 0.00 | 56 | 1010.3 |
| 20260503195523 | 18 | 109 | 8.0 | 20.9 | 0.00 | 0.00 | 0.00 | 55 | 1010.3 |
| 20260503194541 | 18 | 114 | 8.0 | 29.0 | 0.00 | 0.00 | 0.00 | 54 | 1010.4 |
| 20260503193519 | 18 | 110 | 8.0 | 17.7 | 0.00 | 0.00 | 0.00 | 54 | 1010.2 |
| 20260503192540 | 18 | 136 | 8.0 | 25.7 | 0.00 | 0.00 | 0.00 | 54 | 1010.2 |
| 20260503191536 | 18 | 108 | 8.0 | 17.7 | 0.00 | 0.00 | 0.00 | 54 | 1010.4 |
| 20260503190535 | 18 | 123 | 6.4 | 16.1 | 0.00 | 0.00 | 0.00 | 54 | 1010.6 |
| 20260503185532 | 18 | 117 | 6.4 | 17.7 | 0.00 | 0.00 | 0.00 | 53 | 1010.7 |
| 20260503184530 | 18 | 104 | 4.8 | 14.5 | 0.00 | 0.00 | 0.00 | 53 | 1010.7 |
| 20260503183528 | 18 | 116 | 8.0 | 22.5 | 0.00 | 0.00 | 0.00 | 53 | 1010.6 |
| 20260503182527 | 18 | 120 | 4.8 | 16.1 | 0.00 | 0.00 | 0.00 | 53 | 1010.7 |
| 20260503181526 | 18 | 123 | 6.4 | 14.5 | 0.00 | 0.00 | 0.00 | 53 | 1010.9 |
| 20260503180543 | 18 | 106 | 8.0 | 17.7 | 0.00 | 0.00 | 0.00 | 53 | 1010.8 |
| 20260503175521 | 18 | 102 | 6.4 | 14.5 | 0.00 | 0.00 | 0.00 | 53 | 1010.9 |
| 20260503174519 | 18 | 102 | 6.4 | 16.1 | 0.00 | 0.00 | 0.00 | 53 | 1011.0 |
| 20260503173517 | 18 | 108 | 6.4 | 16.1 | 0.00 | 0.00 | 0.00 | 53 | 1011.1 |
| 20260503172535 | 19 | 103 | 6.4 | 16.1 | 0.00 | 0.00 | 0.00 | 53 | 1011.2 |
| 20260503171534 | 19 | 118 | 4.8 | 14.5 | 0.00 | 0.00 | 0.00 | 53 | 1011.2 |
| 20260503170532 | 19 | 132 | 8.0 | 20.9 | 0.00 | 0.00 | 0.00 | 53 | 1011.3 |
| 20260503150530 | 20 | 106 | 6.4 | 14.5 | 0.00 | 0.00 | 0.00 | 52 | 1011.7 |
| 20260503130533 | 21 | 101 | 4.8 | 16.1 | 0.00 | 0.00 | 1.09 | 53 | 1012.6 |
| 20260503110526 | 21 | 108 | 3.2 | 11.3 | 0.00 | 0.00 | 1.09 | 55 | 1012.8 |
| 20260503081540 | 21 | 118 | 3.2 | 9.7 | 0.00 | 0.00 | 1.09 | 55 | 1011.3 |
| 20260503080533 | 21 | 125 | 4.8 | 12.9 | 0.00 | 0.00 | 1.09 | 55 | 1011.3 |
| 20260503072616 | 21 | 116 | 3.2 | 11.3 | 0.00 | 0.00 | 1.09 | 55 | 1011.3 |
| 20260503071524 | 21 | 125 | 3.2 | 12.9 | 0.00 | 0.00 | 1.09 | 55 | 1011.1 |
| 20260503070522 | 21 | 126 | 8.0 | 24.1 | 0.00 | 0.00 | 1.09 | 55 | 1011.0 |
| 20260503054533 | 21 | 97 | 8.0 | 22.5 | 0.00 | 0.00 | 1.09 | 56 | 1011.1 |
| 20260503053611 | 21 | 110 | 11.3 | 24.1 | 0.00 | 0.00 | 1.09 | 56 | 1011.2 |
| 20260503052529 | 21 | 108 | 9.7 | 22.5 | 0.00 | 0.00 | 1.09 | 56 | 1011.0 |